User: anonymous   Login
Location: Lafig�re
(44.4503°N, 4.0357°E)
Time: 09:32:10
(UTC+00:00)
Language:

Meteor 2-5 Rocket - Orbit

View from above orbital plane
View from above orbital plane
View from above satellite
View from above satellite

Ground track
Ground track

The orbit data is extracted from the following two-line orbital elements,

1 11608U 79095B   21170.91567887  .00000222  00000-0  12579-3 0  9991
2 11608  81.2137 230.5105 0054461  11.3957 348.8430 14.06175636135549
Epoch (UTC): 19 June 2021 21:58:34
Eccentricity: 0.0054461
inclination: 81.2137°
perigee height: 833 km
apogee height: 912 km
right ascension of ascending node: 230.5105°
argument of perigee: 11.3957°
revolutions per day: 14.06175636
mean anomaly at epoch: 348.8430°
orbit number at epoch: 13554

The dashed part of the orbit path shows where the satellite is in the earth's shadow,  

DLR